DW8750 Weather Reports


Display with metric or nautical units.
time (UTC)temp
F
wind
direction
speed
MPH
gust
MPH
rain 1hr
in
rain 24hr
in
rain mn
in
humidity
%
barometer
mb
20260510145751 69 11 5.0 9.0 0.00 0.13 0.13 79 1015.8
20260510144749 70 5 3.0 8.0 0.00 0.13 0.13 78 1015.9
20260510143748 70 351 5.0 10.0 0.00 0.13 0.13 78 1015.9
20260510134743 71 351 8.0 12.0 0.00 0.13 0.13 77 1016.0
20260510133750 71 336 6.0 11.0 0.00 0.13 0.13 77 1015.8
20260510132744 71 325 6.0 10.0 0.00 0.13 0.13 77 1015.8
20260510131746 72 341 6.0 11.0 0.00 0.13 0.13 76 1015.8
20260510130741 72 355 6.0 13.0 0.00 0.13 0.13 78 1015.9
20260510125744 71 302 7.0 12.0 0.00 0.13 0.13 77 1016.0
20260510124743 72 18 5.0 11.0 0.00 0.13 0.13 77 1016.1
20260510123740 72 26 9.0 13.0 0.00 0.13 0.13 76 1016.2
20260510122740 72 288 8.0 13.0 0.00 0.13 0.13 77 1016.2
20260510121738 72 305 8.0 15.0 0.00 0.13 0.13 76 1016.2
20260510120738 72 306 10.0 17.0 0.00 0.13 0.13 76 1016.2
20260510115739 72 266 6.0 14.0 0.00 0.13 0.13 76 1015.9
20260510114737 72 281 9.0 17.0 0.00 0.13 0.13 76 1015.8
20260510113737 72 296 11.0 17.0 0.00 0.13 0.13 76 1015.7
20260510112731 73 304 11.0 23.0 0.00 0.13 0.13 76 1015.6
20260510111731 73 309 12.0 24.0 0.00 0.13 0.13 77 1015.6
20260510110731 73 313 12.0 20.0 0.00 0.13 0.13 77 1015.4
20260510105731 73 319 14.0 21.0 0.00 0.13 0.13 76 1015.4
20260510104734 74 306 12.0 22.0 0.00 0.13 0.13 74 1015.3
20260510102733 74 307 13.0 21.0 0.00 0.13 0.13 72 1015.0
20260510101730 76 313 15.0 22.0 0.00 0.13 0.13 67 1015.0
20260510100732 80 314 12.0 24.0 0.00 0.13 0.13 54 1014.6
20260510095732 80 274 14.0 24.0 0.00 0.13 0.13 55 1014.2
20260510094729 81 273 8.0 19.0 0.00 0.13 0.13 55 1014.1
20260510093732 80 252 5.0 12.0 0.00 0.13 0.13 55 1013.9
20260510091731 80 281 6.0 11.0 0.00 0.13 0.13 57 1013.9
20260510085730 78 213 5.0 10.0 0.00 0.13 0.13 59 1013.9
20260510084729 78 279 7.0 12.0 0.00 0.13 0.13 59 1014.0
20260510083729 78 268 6.0 11.0 0.00 0.13 0.13 59 1013.8
20260510082731 78 265 6.0 12.0 0.00 0.13 0.13 60 1014.0
20260510081731 77 184 11.0 19.0 0.00 0.13 0.13 57 1013.9
20260510080729 77 166 13.0 24.0 0.00 0.13 0.13 56 1013.8
20260510075729 76 180 12.0 26.0 0.00 0.13 0.13 59 1013.7
20260510074729 76 186 12.0 20.0 0.00 0.13 0.13 60 1013.4
20260510072731 75 187 8.0 16.0 0.00 0.13 0.13 62 1013.5
20260510071732 74 182 6.0 10.0 0.00 0.13 0.13 65 1013.6
20260510070729 73 238 6.0 12.0 0.00 0.13 0.13 68 1013.6
20260510065724 71 192 4.0 8.0 0.00 0.13 0.13 74 1013.7
20260510064725 70 196 4.0 8.0 0.00 0.13 0.13 78 1013.8
20260510062723 67 186 2.0 5.0 0.00 0.13 0.13 86 1014.2
20260510061725 67 257 2.0 4.0 0.01 0.13 0.13 86 1014.7
20260510053723 66 163 3.0 7.0 0.01 0.13 0.13 87 1015.0
20260510052721 66 229 3.0 9.0 0.01 0.13 0.13 84 1015.8
20260510050722 67 265 6.0 15.0 0.00 0.12 0.12 83 1015.1
20260510045721 67 227 10.0 16.0 0.01 0.12 0.12 84 1015.1
20260510044722 67 346 6.0 14.0 0.01 0.12 0.12 87 1015.0
20260510042723 66 137 6.0 12.0 0.03 0.12 0.12 87 1013.6
20260510041724 66 134 7.0 13.0 0.03 0.12 0.12 90 1014.1
20260510040723 66 136 9.0 13.0 0.04 0.12 0.12 92 1014.4
20260510034721 66 136 9.0 12.0 0.06 0.11 0.11 92 1016.5
20260510033721 66 108 5.0 11.0 0.07 0.10 0.10 92 1016.6
20260510032722 66 125 3.0 8.0 0.06 0.09 0.10 92 1016.7
20260510030715 66 89 4.0 9.0 0.06 0.08 0.08 91 1017.2
20260510025714 67 111 6.0 10.0 0.07 0.08 0.08 90 1017.0
20260510024714 67 80 5.0 8.0 0.05 0.05 0.06 89 1017.9
20260510023713 67 65 5.0 10.0 0.03 0.03 0.03 88 1018.5
20260510022723 68 105 3.0 8.0 0.03 0.03 0.03 86 1017.1
20260510021714 69 114 2.0 4.0 0.02 0.02 0.02 84 1017.2
20260510014714 71 303 8.0 14.0 0.00 0.00 0.00 79 1018.4
20260510013712 72 287 11.0 18.0 0.00 0.00 0.00 75 1018.3
20260510012712 73 319 13.0 24.0 0.00 0.00 0.00 72 1017.9
20260510011713 73 259 9.0 15.0 0.00 0.00 0.00 67 1017.5
20260510010710 73 298 12.0 20.0 0.00 0.00 0.00 62 1017.2
20260510005710 73 264 16.0 27.0 0.00 0.00 0.00 60 1016.7
20260510004704 73 263 16.0 28.0 0.00 0.00 0.00 59 1015.9
20260510003704 72 234 12.0 25.0 0.00 0.00 0.00 61 1014.7
20260510002705 71 247 20.0 37.0 0.00 0.00 0.00 65 1014.9
20260510001704 70 263 16.0 31.0 0.00 0.00 0.00 66 1014.9
20260510000706 71 277 5.0 12.0 0.00 0.00 0.00 62 1013.5
20260509234704 71 165 8.0 17.0 0.00 0.00 0.00 62 1012.5
20260509233702 71 236 6.0 12.0 0.00 0.00 0.00 62 1012.3
20260509232706 71 217 4.0 11.0 0.00 0.00 0.00 62 1012.4
20260509231702 70 208 4.0 14.0 0.00 0.00 0.00 63 1012.5
20260509230703 71 165 6.0 11.0 0.00 0.00 0.00 63 1012.9
20260509225706 70 194 6.0 11.0 0.00 0.00 0.00 65 1013.2
20260509224704 70 188 6.0 14.0 0.00 0.00 0.00 65 1013.4
20260509223702 71 221 8.0 16.0 0.00 0.00 0.00 64 1013.6
20260509222702 70 199 6.0 13.0 0.00 0.00 0.00 65 1013.6
20260509221701 70 173 7.0 15.0 0.00 0.00 0.00 66 1013.7
20260509220701 70 194 3.0 8.0 0.00 0.00 0.00 67 1013.9
20260509213655 69 209 5.0 11.0 0.00 0.00 0.00 70 1014.3
20260509212655 69 179 4.0 6.0 0.00 0.00 0.00 72 1014.4
20260509211653 69 212 3.0 9.0 0.00 0.00 0.00 73 1014.4
20260509210653 69 149 2.0 5.0 0.00 0.00 0.00 75 1014.6
20260509205653 69 208 2.0 5.0 0.00 0.00 0.00 74 1014.6
20260509204654 69 202 2.0 5.0 0.00 0.00 0.00 75 1014.8
20260509203653 69 200 3.0 6.0 0.00 0.00 0.00 76 1015.0
20260509201655 69 152 2.0 5.0 0.00 0.00 0.00 76 1015.2
20260509195646 69 111 3.0 6.0 0.00 0.00 0.00 76 1015.7
20260509194646 68 183 1.0 4.0 0.00 0.00 0.00 77 1015.9
20260509193649 68 215 1.0 4.0 0.00 0.00 0.00 78 1016.1
20260509192647 68 334 0.0 2.0 0.00 0.00 0.00 79 1015.8
20260509191647 69 334 0.0 2.0 0.00 0.00 0.00 80 1015.9
20260509190648 69 334 0.0 2.0 0.00 0.00 0.00 81 1015.9
20260509185644 69 334 1.0 4.0 0.00 0.00 0.00 80 1016.0
20260509182646 69 13 0.0 3.0 0.00 0.00 0.00 75 1015.6
20260509181646 70 13 0.0 0.0 0.00 0.00 0.00 76 1015.8
20260509180642 70 13 0.0 1.0 0.00 0.00 0.00 74 1015.7
20260509175643 70 13 0.0 2.0 0.00 0.00 0.00 73 1015.8
20260509174643 71 13 1.0 3.0 0.00 0.00 0.00 72 1016.0
20260509173641 70 13 1.0 3.0 0.00 0.00 0.00 66 1016.0
20260509171636 71 13 2.0 4.0 0.00 0.00 0.00 68 1016.0
20260509165637 71 28 3.0 6.0 0.00 0.00 0.00 67 1015.7
20260509163634 72 80 2.0 4.0 0.00 0.00 0.00 60 1015.7
20260509162634 72 42 3.0 6.0 0.00 0.00 0.00 60 1015.8
20260509161635 72 25 5.0 8.0 0.00 0.00 0.00 60 1015.7
20260509160634 72 68 5.0 9.0 0.00 0.00 0.00 61 1015.7
20260509155638 72 40 6.0 10.0 0.00 0.00 0.00 62 1016.0
20260509154636 72 43 6.0 9.0 0.00 0.00 0.00 63 1016.0
20260509153630 72 74 6.0 10.0 0.00 0.00 0.00 64 1016.2
20260509152636 72 77 5.0 10.0 0.00 0.00 0.00 64 1016.4
20260509151632 72 338 5.0 11.0 0.00 0.00 0.00 66 1016.6
20260509150633 72 29 6.0 11.0 0.00 0.00 0.00 67 1016.6